Weather History for Umea, Sweden

Change the Weather History Date:

Friday, January 18, 2013

  Actual Average Record
Temperature  
Mean Temperature -2 °F -  
Max Temperature 14 °F - - ()
Min Temperature -16 °F - - ()
Degree Days  
Heating Degree Days 67    
Moisture  
Dew Point -7 °F    
Average Humidity 80    
Maximum Humidity 86    
Minimum Humidity 70    
Precipitation  
Precipitation 0.00 in - - ()
Sea Level Pressure  
Sea Level Pressure 30.10 in    
Wind  
Wind Speed 2 mph ()    
Max Wind Speed 8 mph    
Max Gust Speed -    
T = Trace of Precipitation, MM = Missing Value Source: Averaged Metar Reports

Daily Weather History Graph

Daily Weather History Graph

Search for Another Location

Airport:

Trip Planner

Search our weather history database for the weather conditions in past years. The results will help you decide how hot, cold, wet, or windy it might be!

Date:

Astronomy

Jan. 18, 2013 Rise Set
Actual Time 8:54 AM CET 2:44 PM CET
Civil Twilight 7:51 AM CET 3:48 PM CET
Nautical Twilight 6:48 AM CET 4:50 PM CET
Astronomical Twilight 5:52 AM CET 5:47 PM CET
Moon 9:30 AM CET (1/18) 12:01 AM CET (1/18)
Length of Visible Light 7h 57m
Length of Day
5h 49m
Waxing Crescent, 45% of the Moon is Illuminated
Jan 18
Waxing Crescent
Jan 19
First Quarter
Jan 27
Full
Feb 3
Last Quarter
Feb 10
New

Hourly Weather History & Observations

Time (CET) Temp. Windchill Dew Point Humidity Pressure Visibility Wind Dir Wind Speed Gust Speed Precip Events Conditions
12:20 AM -16.6 °F - -23.8 °F 70% 30.30 in - Calm Calm - N/A   Clear
12:50 AM -16.6 °F - -23.8 °F 70% 30.27 in - Calm Calm - N/A   Clear
1:20 AM -16.6 °F - -22.0 °F 76% 30.27 in - Calm Calm - N/A   Clear
1:50 AM -14.8 °F - -20.2 °F 77% 30.27 in - Variable 1.2 mph - N/A   Clear
2:20 AM -16.6 °F - -22.0 °F 76% 30.27 in - Calm Calm - N/A   Clear
2:50 AM -16.6 °F - -22.0 °F 76% 30.27 in - Calm Calm - N/A   Clear
3:20 AM -16.6 °F - -23.8 °F 70% 30.24 in - Calm Calm - N/A   Clear
3:50 AM -16.6 °F - -22.0 °F 76% 30.24 in - Calm Calm - N/A   Clear
4:20 AM -16.6 °F -26.8 °F -22.0 °F 76% 30.21 in - NW 3.5 mph - N/A   Clear
4:50 AM -14.8 °F - -20.2 °F 77% 30.21 in - ESE 2.3 mph - N/A   Clear
5:20 AM -14.8 °F - -20.2 °F 77% 30.21 in - Variable 2.3 mph - N/A   Clear
5:50 AM -14.8 °F - -20.2 °F 77% 30.21 in - Variable 1.2 mph - N/A   Clear
6:20 AM -14.8 °F - -20.2 °F 77% 30.18 in - Variable 1.2 mph - N/A   Clear
6:50 AM -14.8 °F - -20.2 °F 77% 30.18 in - Calm Calm - N/A   Clear
7:20 AM -13.0 °F - -18.4 °F 77% 30.18 in - Calm Calm - N/A   Clear
7:50 AM -11.2 °F - -16.6 °F 77% 30.18 in - Variable 1.2 mph - N/A   Clear
8:20 AM -13.0 °F - -18.4 °F 77% 30.15 in - Calm Calm - N/A   Clear
8:50 AM -13.0 °F - -18.4 °F 77% 30.15 in - Calm Calm - N/A   Clear
9:20 AM -9.4 °F - -14.8 °F 77% 30.15 in - Variable 2.3 mph - N/A   Clear
9:50 AM -2.2 °F - -5.8 °F 85% 30.12 in - Calm Calm - N/A   Clear
10:20 AM 1.4 °F - -4.0 °F 78% 30.12 in - Variable 2.3 mph - N/A   Clear
10:50 AM 1.4 °F -8.3 °F -2.2 °F 85% 30.12 in - SSW 4.6 mph - N/A   Clear
11:20 AM -0.4 °F -8.3 °F -4.0 °F 85% 30.12 in - South 3.5 mph - N/A   Clear
11:50 AM 3.2 °F -6.2 °F -0.4 °F 85% 30.09 in - South 4.6 mph - N/A   Clear
12:20 PM 1.4 °F -6.2 °F -2.2 °F 85% 30.09 in - South 3.5 mph - N/A   Clear
12:50 PM 5.0 °F -8.1 °F -0.4 °F 78% 30.09 in - SSW 8.1 mph - N/A   Clear
1:20 PM 5.0 °F -6.9 °F -0.4 °F 78% 30.06 in - SSW 6.9 mph - N/A   Clear
1:50 PM 6.8 °F -4.8 °F 1.4 °F 79% 30.06 in - SSW 6.9 mph - N/A   Clear
2:20 PM 6.8 °F -4.8 °F 1.4 °F 79% 30.06 in - SSW 6.9 mph - N/A   Clear
2:50 PM 6.8 °F -4.8 °F 1.4 °F 79% 30.04 in - South 6.9 mph - N/A   Clear
3:50 PM 6.8 °F -3.5 °F 1.4 °F 79% 30.04 in - SSW 5.8 mph - N/A   Clear
4:20 PM 5.0 °F -4.1 °F 1.4 °F 85% 30.01 in - South 4.6 mph - N/A   Clear
4:50 PM 5.0 °F -5.6 °F -0.4 °F 78% 30.01 in - South 5.8 mph - N/A   Clear
5:20 PM 5.0 °F -5.6 °F -0.4 °F 78% 30.01 in - South 5.8 mph - N/A   Clear
5:50 PM 3.2 °F -7.8 °F -0.4 °F 85% 30.01 in - South 5.8 mph - N/A   Clear
6:20 PM 5.0 °F -5.6 °F 1.4 °F 85% 29.98 in - South 5.8 mph - N/A   Clear
6:50 PM 6.8 °F -5.9 °F 3.2 °F 85% 29.98 in - South 8.1 mph - N/A   Clear
7:20 PM 8.6 °F -2.6 °F 3.2 °F 79% 29.98 in - SSW 6.9 mph - N/A   Clear
7:50 PM 8.6 °F -3.7 °F 5.0 °F 85% 29.95 in - SSW 8.1 mph - N/A   Clear
8:23 PM 8.6 °F -2.6 °F 5.0 °F 85% 29.95 in - SSW 6.9 mph - N/A   Clear
8:50 PM 8.6 °F -1.3 °F 5.0 °F 85% 29.95 in - SSW 5.8 mph - N/A   Clear
9:20 PM 10.4 °F 2.2 °F 6.8 °F 85% 29.92 in - South 4.6 mph - N/A   Clear
9:50 PM 10.4 °F 0.8 °F 6.8 °F 85% 29.92 in - South 5.8 mph - N/A   Clear
10:20 PM 10.4 °F 0.8 °F 6.8 °F 85% 29.92 in - SSW 5.8 mph - N/A   Clear
11:20 PM 12.2 °F 4.3 °F 8.6 °F 85% 29.89 in - SSW 4.6 mph - N/A   Clear
11:50 PM 14.0 °F 6.5 °F 10.4 °F 86% 29.89 in - South 4.6 mph - N/A   Clear